CZ-6A DEB, 55899

Orbit data source: Space-Track

CZ-6A DEB, 55899 is space debris in SSO originally from a launch on Fri, 11 Nov 2022 UTC launched from the Taiyaun Space Center, China (TSC). Debris objects in space refer to the collection of defunct objects orbiting the Earth. Examples of debris include non-operational satellites, rocket bodies, and fragments generated from explosions, collisions, or faulty payload assembly.

Loading next visibility...
Identifier
55899, 2022-151AAX
Orbit
SSO
Country
Flag of CNCN / PRC
Related business
Manufacturer
SAST
Mission
Spacecraft
Bus & Motor
Unknown
Mass
Unknown
Launch date (UTC)
2022-11-11 (4 years ago)
Launch vehicle
Unknown
Launch site
Taiyaun Space Center, China (TSC)
Object type
Payload
Rocket body
Debris
Shape & HBR
Unknown shape, 0.1 m
Radar Cross Section
Small (<0.1 m²)

Expand to show TLE details & history
Last TLE update: 2 days ago

TLE from 2 days ago
0 CZ-6A DEB
1 55899U 22151AAX 26171.16411817  .00017582  00000-0  20336-2 0  9992
2 55899  98.6251 247.3780 0053733 236.0275 123.5825 14.84564225185063
Epoch: 2026-06-20T03:56Z
TLE epoch observation values (Epoch: 2026-06-20T03:56:19.809Z)
Latitude
-0°
Longitude
-80.08721°
Altitude
638.888 km
Speed
7.527 km/s
True Right ascension
16h 29m 30s
True Declination
0° 00' 00"
Sunlit
Object was in full shadow at epoch
Visualization orbit readout
Latitude
Unknown
Longitude
Unknown
Altitude
Unknown
Speed
Unknown
Apparent Right ascension
Unknown
Apparent Declination
Unknown
Sunlit
N/A
Visualization observer readout
Local Sidereal Time
21:34:53
Azimuth
Unknown
Elevation
Unknown
Doppler factor
Unknown
Orbital elements
Apogee altitude
649.583 km
Perigee altitude
574.462 km
Semi-major axis
6,990.16 km
Eccentricity
0.00537
Inclination
98.6251°
RAAN
247.378°
Arg. of periapsis
236.0275°
True anomaly
124.09356°
Mean anomaly
123.5825°
Eccentric anomaly
123.83822°
Mean motion
3.71375 °/min
Orbital period
96.94 mins
BSTAR
0.0020336
Loading maneuver chart data...
Computing Atmospheric mass density...
Loading historical data...
Loading historical data...
Loading historical data...
Loading historical data...
Loading historical data...
Loading historical data...
Loading historical data...

Documentation

Showing up to 5 results
|